BG5HLN-13 Weather Reports


time (UTC)temp
C
wind
direction
speed
KPH
gust
KPH
rain 1hr
cm
rain 24hr
cm
rain mn
cm
humidity
%
barometer
mb
20260504235808 21 0 0.0 0.0 0.00 0.00 0.00 73 1015.8
20260504234808 21 270 0.0 0.0 0.00 0.00 0.00 73 1015.8
20260504233939 21 0 0.0 0.0 0.00 0.00 0.00 73 1015.7
20260504233807 21 0 0.0 0.0 0.00 0.00 0.00 73 1015.7
20260504232808 21 0 0.0 0.0 0.00 0.00 0.00 74 1015.7
20260504231807 20 0 0.0 0.0 0.00 0.00 0.00 73 1015.6
20260504230939 20 0 0.0 0.0 0.00 0.00 0.00 74 1015.5
20260504230808 20 0 0.0 0.0 0.00 0.00 0.00 74 1015.5
20260504225808 20 0 0.0 0.0 0.00 0.00 0.00 75 1015.4
20260504224808 20 0 0.0 0.0 0.00 0.00 0.00 75 1015.3
20260504223939 20 0 0.0 0.0 0.00 0.00 0.00 74 1015.3
20260504223808 20 0 0.0 0.0 0.00 0.00 0.00 74 1015.3
20260504222808 20 270 0.0 0.0 0.00 0.00 0.00 75 1015.1
20260504221807 20 0 0.0 0.0 0.00 0.00 0.00 75 1015.0
20260504220939 20 0 0.0 0.0 0.00 0.00 0.00 75 1014.9
20260504220808 20 0 0.0 0.0 0.00 0.00 0.00 75 1014.9
20260504215808 20 0 0.0 0.0 0.00 0.00 0.00 75 1015.0
20260504214807 20 315 0.0 0.0 0.00 0.00 0.00 75 1014.9
20260504213939 20 0 0.0 0.0 0.00 0.00 0.00 75 1014.9
20260504213807 20 0 0.0 0.0 0.00 0.00 0.00 75 1014.9
20260504212807 20 0 0.0 0.0 0.00 0.00 0.00 74 1014.8
20260504211758 20 0 0.0 0.0 0.00 0.00 0.00 74 1014.8
20260504210939 20 0 0.0 0.0 0.00 0.00 0.00 74 1014.8
20260504210807 20 0 0.0 0.0 0.00 0.00 0.00 74 1014.8
20260504205806 20 0 0.0 0.0 0.00 0.00 0.00 74 1014.7
20260504204808 20 270 0.0 0.0 0.00 0.00 0.00 73 1014.6
20260504203939 20 315 0.0 0.0 0.00 0.00 0.00 73 1014.6
20260504203807 20 0 0.0 0.0 0.00 0.00 0.00 73 1014.6
20260504202807 20 0 0.0 0.0 0.00 0.00 0.00 72 1014.6
20260504201807 20 0 0.0 0.0 0.00 0.00 0.00 73 1014.6
20260504200938 20 0 0.0 0.0 0.00 0.00 0.00 73 1014.5
20260504200807 20 0 0.0 0.0 0.00 0.00 0.00 72 1014.5
20260504195807 20 0 0.0 0.0 0.00 0.00 0.00 72 1014.5
20260504194807 20 270 0.0 0.0 0.00 0.00 0.00 72 1014.3
20260504193938 20 270 0.0 0.0 0.00 0.00 0.00 72 1014.2
20260504193806 20 0 0.0 0.0 0.00 0.00 0.00 72 1014.3
20260504192807 20 0 0.0 0.0 0.00 0.00 0.00 72 1014.3
20260504191806 20 315 0.0 0.0 0.00 0.00 0.00 72 1014.4
20260504190938 20 0 0.0 0.0 0.00 0.00 0.00 72 1014.5
20260504190806 20 270 0.0 0.0 0.00 0.00 0.00 72 1014.4
20260504185807 21 0 0.0 0.0 0.00 0.00 0.00 72 1014.4
20260504184806 21 0 0.0 0.0 0.00 0.00 0.00 72 1014.3
20260504184656 21 270 0.0 0.0 0.00 0.00 0.00 73 1014.4
20260504183806 21 270 0.0 0.0 0.00 0.00 0.00 72 1014.4
20260504182807 21 0 0.0 0.0 0.00 0.00 0.00 72 1014.5
20260504181807 21 270 0.0 0.0 0.00 0.00 0.00 72 1014.6
20260504180938 21 0 0.0 0.0 0.00 0.00 0.00 72 1014.6
20260504180807 21 0 0.0 0.0 0.00 0.00 0.00 72 1014.6
20260504175806 21 0 0.0 0.0 0.00 0.00 0.00 72 1014.6
20260504174806 21 315 0.0 0.0 0.00 0.00 0.00 71 1014.6
20260504173938 21 0 0.0 0.0 0.00 0.00 0.00 70 1014.5
20260504173806 21 0 0.0 0.0 0.00 0.00 0.00 70 1014.5
20260504172806 21 0 0.0 0.0 0.00 0.00 0.00 70 1014.5
20260504171807 21 0 0.0 0.0 0.00 0.00 0.00 70 1014.6
20260504170938 21 0 0.0 0.0 0.00 0.00 0.00 70 1014.7
20260504170807 21 0 0.0 0.0 0.00 0.00 0.00 70 1014.7
20260504150937 21 0 0.0 0.0 0.00 0.00 0.00 72 1016.0
20260504150806 21 0 0.0 0.0 0.00 0.00 0.00 72 1016.0
20260504140936 22 0 0.0 0.0 0.00 0.00 0.00 69 1016.4
20260504140805 22 0 0.0 0.0 0.00 0.00 0.00 69 1016.4
20260504130805 22 0 0.0 0.0 0.00 0.00 0.00 65 1016.5
20260504081804 26 0 0.0 0.0 0.00 0.00 0.00 52 1015.3
20260504080935 26 0 0.0 0.0 0.00 0.00 0.00 50 1015.3
20260504080804 26 0 0.0 0.0 0.00 0.00 0.00 50 1015.3
20260504044803 25 0 0.0 0.0 0.00 0.00 0.00 50 1016.8
20260504043935 25 0 0.0 0.0 0.00 0.00 0.00 53 1016.9
20260504043803 25 0 0.0 0.0 0.00 0.00 0.00 52 1016.9
20260504042802 25 90 0.0 0.0 0.00 0.00 0.00 52 1016.9
20260504041803 25 0 0.0 0.0 0.00 0.00 0.00 52 1017.0
20260504040934 25 0 0.0 0.0 0.00 0.00 0.00 49 1017.1
20260504040803 25 0 0.0 0.0 0.00 0.00 0.00 53 1017.1
20260504035803 25 0 0.0 0.0 0.00 0.00 0.00 53 1017.2
20260504034803 25 0 0.0 0.0 0.00 0.00 0.00 51 1017.4
20260504033802 25 0 0.0 0.0 0.00 0.00 0.00 52 1017.5
20260504032803 24 0 0.0 0.0 0.00 0.00 0.00 54 1017.5
20260504031803 24 0 0.0 0.0 0.00 0.00 0.00 55 1017.5
20260504030934 23 0 0.0 0.0 0.00 0.00 0.00 54 1017.7
20260504030803 23 0 0.0 0.0 0.00 0.00 0.00 55 1017.8
20260504025802 23 0 0.0 0.0 0.00 0.00 0.00 55 1017.8
20260504024802 23 0 0.0 0.0 0.00 0.00 0.00 58 1018.0
20260504023934 23 0 0.0 0.0 0.00 0.00 0.00 60 1018.0
20260504023803 23 0 0.0 0.0 0.00 0.03 0.00 60 1018.0
20260504022802 23 0 0.0 0.0 0.00 0.03 0.00 61 1018.0
20260504021802 22 0 0.0 0.0 0.00 0.03 0.00 62 1018.0
20260504020933 22 0 0.0 0.0 0.00 0.03 0.00 64 1018.0
20260504020802 22 0 0.0 0.0 0.00 0.03 0.00 64 1018.0
20260504015802 22 0 0.0 0.0 0.00 0.03 0.00 62 1018.0
20260504014803 22 0 0.0 0.0 0.00 0.03 0.00 64 1018.0
20260504013934 22 0 0.0 0.0 0.00 0.03 0.00 68 1018.0
20260504013801 22 0 0.0 0.0 0.00 0.03 0.00 67 1018.0
20260504012803 21 0 0.0 0.0 0.00 0.03 0.00 69 1018.0
20260504011802 21 0 0.0 0.0 0.00 0.03 0.00 73 1018.0
20260504010933 21 0 0.0 0.0 0.00 0.03 0.00 73 1018.0
20260504010802 21 0 0.0 0.0 0.00 0.03 0.00 72 1018.0
20260504005802 21 0 0.0 0.0 0.00 0.03 0.00 71 1018.0
20260504004801 21 0 0.0 0.0 0.00 0.03 0.00 71 1018.0
20260504003934 21 0 0.0 0.0 0.00 0.03 0.00 73 1017.9
20260504003802 21 0 0.0 0.0 0.00 0.03 0.00 72 1017.9
20260504002802 21 0 0.0 0.0 0.00 0.03 0.00 75 1017.9
20260504001802 20 0 0.0 0.0 0.00 0.03 0.00 73 1017.8
20260504000933 20 0 0.0 0.0 0.00 0.03 0.00 75 1017.7
20260504000802 20 0 0.0 0.0 0.00 0.03 0.00 76 1017.7